Regional Weather Roundup
Issued by NWS

Home | Current Version | Previous Version | Text Only | Print | Product List | Glossary Off
Versions: 1 2 3 4 5 6 7 8 9 10 11 12 13 14 15 16 17 18 19 20 21 22 23 24 25 26 27 28 29 30 31 32 33 34 35 36 37 38 39 40 41 42 43 44 45 46 47 48 49 50

000
ASUS43 KMPX 012210
RWRMN
WEATHER ROUNDUP FOR MINNESOTA
NATIONAL WEATHER SERVICE TWIN CITIES/CHANHASSEN MN
500 PM CDT TUE SEP 01 2015


NOTE: "FAIR" INDICATES FEW OR NO CLOUDS BELOW 12,000 FEET WITH NO
SIGNIFICANT WEATHER AND/OR OBSTRUCTIONS TO VISIBILITY. N/A MEANS
CURRENT SKY AND/OR WEATHER CONDITIONS ARE NOT AVAILABLE.

MNZ060>063-068>070-012300-
   Twin Cities Metro

CITY           SKY/WX    TMP DP  RH WIND       PRES   REMARKS
TWIN CITIES    CLOUDY    85  72  65 S7        29.88F HX  91
ST PAUL        CLOUDY    84  74  71 CALM      29.88R HX  91
CRYSTAL        CLOUDY    86  73  65 SE6       29.87F HX  93
BLAINE         CLOUDY    84  73  70 SE3       29.88S HX  91
LAKEVILLE      CLOUDY    84  75  74 S5        29.89S HX  92
EDEN PRAIRIE   CLOUDY    85  74  69 VRB3      29.88F HX  92
SOUTH ST PAUL  CLOUDY    85  72  65 CALM      29.88S HX  91
LAKE ELMO      FAIR      82  75  78 CALM      29.90S
$$
MNZ001>005-007-008-013>017-022>024-027-028-012300-
   Northwest Minnesota

CITY           SKY/WX    TMP DP  RH WIND       PRES   REMARKS
BEMIDJI        MOSUNNY   84  52  33 S5        29.90S
HALLOCK        SUNNY     86  50  28 S13G18    29.81S
ROSEAU         SUNNY     84  55  37 SW9       29.85S
WARROAD        SUNNY     82  57  42 SW9       29.86S
THIEF RVR FALL SUNNY     84  52  32 S8        29.85F
CROOKSTON      SUNNY     88  48  25 SW9       29.84S
FOSSTON        SUNNY     88  46  23 S8        29.88F
DETROIT LAKES  PTSUNNY   84  52  32 S9        29.89S
MOORHEAD       MOSUNNY   88  48  25 SE8       29.83F
PARK RAPIDS    PTSUNNY   85  49  28 SE8       29.89F
MAHNOMEN       FAIR      85  52  32 SE5       29.86F
$$
MNZ006-009>011-018-025>026-012300-
   North Central Minnesota

CITY           SKY/WX    TMP DP  RH WIND       PRES   REMARKS
BAUDETTE       SUNNY     83  52  34 SW6       29.87R
FLAG ISLAND    SUNNY     73  61  64 S8        29.84S
INTL FALLS     SUNNY     81  53  37 W6        29.88S
WASKISH        SUNNY     81  57  44 NW3       29.89S
BIG FORK       SUNNY     82  54  36 CALM      29.91S
LONGVILLE      PTSUNNY   79  61  53 CALM      29.91F
GRAND RAPIDS     N/A     81  54  39 SW5       29.92S
CRANE LAKE     SUNNY     79  48  34 SE2       29.91F
COOK           SUNNY     82  52  34 CALM      29.91S
WALKER         FAIR      79  57  47 CALM      29.90F
$$
MNZ012-019>021-037-012300-
   Northeast Minnesota

CITY           SKY/WX    TMP DP  RH WIND       PRES   REMARKS
DULUTH         MOSUNNY   82  64  54 SW3       29.91S
ELY            SUNNY     79  48  34 SW5       29.92S
HIBBING        MOSUNNY   83  48  29 CALM      29.91S
EVELETH        MOSUNNY   81  48  32 CALM      29.93S
DULUTH HARBOR  MOSUNNY   84  73  70 SW6       29.88S HX  91
TWO HARBORS    MOSUNNY   84  72  65 SW7       29.88S
SILVER BAY     MOSUNNY   82  70  65 S7        29.88S
GRAND MARAIS     N/A     63  61  93 SW6       29.87S
G MARAIS ARPRT SUNNY     77  52  41 W6        29.94R
$$
MNZ029>031-032-039>041-046>048-054>057-064-012300-
   West Central Minnesota

CITY           SKY/WX    TMP DP  RH WIND       PRES   REMARKS
FERGUS FALLS   CLOUDY    82  64  54 E6        29.82F
WHEATON        CLOUDY    79  70  73 SE10      29.84R
MORRIS         CLOUDY    81  73  78 SE12      29.84R
ALEXANDRIA     CLOUDY    81  72  74 SE10      29.89F
ELBOW LAKE     FAIR      81  72  74 SE9       29.84S
WADENA         CLOUDY    82  63  51 SE9       29.89S
GLENWOOD       CLOUDY    79  72  78 SE7       29.89F
APPLETON       CLOUDY    79  70  73 S3        29.84R
BENSON         CLOUDY    79  70  73 S9G17     29.83S
ORTONVILLE     CLOUDY    79  70  73 SE8       29.84S
MADISON        CLOUDY    75  72  88 E3        29.84S
WILLMAR        FAIR      79  73  83 W3        29.90R
$$
MNZ033>034-036-042>043-049>051-058-059-012300-
   Central Minnesota

CITY           SKY/WX    TMP DP  RH WIND       PRES   REMARKS
ST CLOUD       CLOUDY    82  72  71 S6        29.89S
SAUK CENTRE    FAIR      79  72  79 SE7       29.90R
PAYNESVILLE    CLOUDY    79  72  78 SE5       29.90R
AITKIN         PTSUNNY   82  66  57 S6        29.90S
PINE RIVER     PTSUNNY   81  61  50 CALM      29.94F
BRAINERD       CLOUDY    82  61  48 SE3       29.90F
STAPLES        CLOUDY    81  57  44 SE5       29.90S
LONG PRAIRIE   FAIR      79  70  73 E3        29.90S
LITTLE FALLS   CLOUDY    81  68  65 CALM      29.89S
LITCHFIELD     CLOUDY    82  75  78 SE3       29.90S
BUFFALO        CLOUDY    82  71  71 SE3       29.89F
MAPLE LAKE     CLOUDY    82  76  82 CALM      29.90S
$$
MNZ037-044-045-052-053-012300-
   East Central Minnesota

CITY           SKY/WX    TMP DP  RH WIND       PRES   REMARKS
PRINCETON      CLOUDY    84  72  65 CALM      29.89F
MORA           CLOUDY    81  70  69 CALM      29.91F
CAMBRIDGE        N/A     86  72  62 CALM      29.88S HX  92
RUSH CITY      PTSUNNY   83  71  68 SW6       29.90S
MOOSE LAKE     PTSUNNY   81  68  65 SW5       29.89S
HINCKLEY       MOCLDY    82  72  69 SW5       29.91R
CLOQUET        PTSUNNY   81  63  54 S7        29.91S
MCGREGOR       PTSUNNY   82  59  44 CALM      29.91S
$$
MNZ071>073-080-081-089-090-097-098-012300-
   Southwest Minnesota

CITY           SKY/WX    TMP DP  RH WIND       PRES   REMARKS
MONTEVIDEO     CLOUDY    75  73  94 S9G17     29.86S
GRANITE FALLS  DRIZZLE   76  74  91 CALM      29.88S
CANBY          CLOUDY    77  72  84 SE13      29.84F
MARSHALL       CLOUDY    81  70  69 SE8       29.88S
REDWOOD FALLS  CLOUDY    84  73  69 SE7       29.86S HX  90
OLIVIA         CLOUDY    77  70  78 E5        29.87F
PIPESTONE      CLOUDY    79  70  73 S7        29.89F
WINDOM         CLOUDY    82  70  65 S7        29.90S
WORTHINGTON    CLOUDY    81  70  69 S8        29.90S
JACKSON        CLOUDY    81  72  74 S6        29.91F
TRACY          CLOUDY    82  74  77 S6        29.88S
SLAYTON        CLOUDY    79  73  81 CALM      29.90F
$$
MNZ065>067-074>077-082>085-091>093-012300-
   South Central Minnesota

CITY           SKY/WX    TMP DP  RH WIND       PRES   REMARKS
MANKATO        CLOUDY    82  72  69 S10       29.89F
NEW ULM        PTSUNNY   82  72  69 S8        29.88S
ST JAMES       CLOUDY    84  73  70 S9        29.90S HX  91
FAIRMONT       CLOUDY    82  68  61 S9        29.90S
GLENCOE        CLOUDY    86  76  72 CALM      29.87F HX  97
FARIBAULT      CLOUDY    84  73  70 S7        29.91S HX  91
OWATONNA       CLOUDY    82  72  69 S7        29.91F
WASECA         CLOUDY    82  72  69 S9        29.91F
ALBERT LEA     CLOUDY    84  72  65 S6        29.92S
$$
MNZ078>079-086>088-094>096-012300-
   Southeast Minnesota

CITY           SKY/WX    TMP DP  RH WIND       PRES   REMARKS
ROCHESTER      PTSUNNY   82  74  76 S14       29.94S
RED WING       PTSUNNY   88  73  62 S5        29.87F HX  96
STANTON        CLOUDY    87  74  64 S9        29.88F HX  95
DODGE CENTER   PTSUNNY   82  73  74 S6        29.93F
WINONA         MOSUNNY   90  72  55 S5        29.91R HX  96
AUSTIN         CLOUDY    84  73  70 S8        29.93S HX  91
PRESTON        MOSUNNY   82  71  68 S9        29.95S
$$
ABBREVIATIONS USED IN REMARKS
   TC - TEMPERATURES IN CELSIUS
  WCI - WIND CHILL INDEX
   HX - HEAT INDEX
  VSB - VISIBILITY
$$


USA.gov is the U.S. government's official web portal to all federal, state and local government web resources and services.